星链-36615(STARLINK-36615)

导读

STARLINK-36615是美国于2026年1月30日发射的星链系列卫星,归属SpaceX公司的星链互联网星座项目。该项目旨在通过低轨卫星星座,为全球提供高速低延迟的宽带互联网服务。此卫星入轨后,将进一步扩充星链星座规模,助力提升星座覆盖范围与服务容量,完善全球太空互联网布局。

Basic Information
目录编号:
67621
目录名称:
STARLINK-36615
国际标识:
2026-020E
轨道中心:
EARTH
卫星名称:
星链-36615
卫星全名:
星链-36615(STARLINK-36615)
卫星状态:
在轨 (已飞行134 天)
发射日期:
2026-01-30 UTC
国别 :
美国 (US)
星等 :
--
Orbit Information
数据来源 国际轨道数据 AOE轨道数据
星历时间 2026-06-09T03:10:00+0800
4天前
查看轨道信息
2026-06-06T17:00:00+0800
6天前
查看轨道信息
半长轴 6861.174km 6861.218km
偏心率 0.0000428 0.0002021
轨道倾角 43.002° 43.002°
近地点辐角 182.661° 257.748°
升交点赤经 345.572° 359.259°
平近点角 177.424° 78.556°
近地点 482.743km 481.694km
远地点 483.331km 484.468km
周期 94.266分钟 94.267分钟
每日圈数 15.275843 15.275696
Detailed Information
固有亮度:
5
最大亮度:
2.5
卫星平台:
Starlink V1.0
覆盖范围:
全球
运营商:
太空探索技术公司
运营商所在国:
美国
制造商(研发单位):
太空探索技术公司
制造商所在国:
美国
使用方式:
暂无
Satellite Introduction
Starlink 计划是 SpaceX 推出的全球卫星互联网项目,通过发射低轨道卫星,为全球尤其是偏远地区提供高速、低延迟的互联网服务。自 2019 年起,Starlink 已部署数千颗卫星,旨在缩小全球数字鸿沟,推动互联网普及。该项目还为军事、航空等行业提供通信支持,带来广泛经济效益。
2D Orbit Map
3D Orbit Map
Orbit Altitude Analysis Chart
Orbit Inclination Analysis Chart
Orbit Comprehensive Analysis Chart
View Comprehensive Chart